DW5861 Weather Reports


Display with metric or nautical units.
time (UTC)temp
F
wind
direction
speed
MPH
gust
MPH
rain 1hr
in
rain 24hr
in
rain mn
in
humidity
%
barometer
mb
20260508050004 62 338 1.0 2.0 0.00 0.00 0.00 87 1014.5
20260508045525 62 315 1.0 2.0 0.00 0.00 0.00 88 1014.8
20260508045004 62 16 1.0 2.0 0.00 0.00 0.00 87 1014.6
20260508044504 62 1 1.0 2.0 0.00 0.00 0.00 87 1014.3
20260508044004 62 312 1.0 2.0 0.00 0.00 0.00 87 1014.7
20260508043504 62 318 1.0 2.0 0.00 0.00 0.00 87 1014.6
20260508043004 62 330 1.0 2.0 0.00 0.00 0.00 87 1014.2
20260508042504 62 352 0.0 1.0 0.00 0.00 0.00 86 1014.1
20260508042004 62 10 0.0 1.0 0.00 0.00 0.00 86 1014.2
20260508041504 62 5 0.0 1.0 0.00 0.00 0.00 86 1014.4
20260508041004 62 16 0.0 2.0 0.00 0.00 0.00 86 1014.6
20260508040504 62 21 0.0 2.0 0.00 0.00 0.00 86 1014.4
20260508040004 62 49 0.0 1.0 0.00 0.00 0.00 86 1014.6
20260508035504 62 321 0.0 1.0 0.00 0.00 0.00 86 1014.8
20260508035025 62 193 0.0 1.0 0.00 0.00 0.00 86 1014.7
20260508034504 62 165 0.0 2.0 0.00 0.00 0.00 86 1014.7
20260508034004 62 329 1.0 2.0 0.00 0.00 0.00 86 1014.5
20260508033504 62 340 0.0 2.0 0.00 0.00 0.00 87 1014.5
20260508033004 62 345 0.0 2.0 0.00 0.00 0.00 86 1014.6
20260508032504 62 339 1.0 2.0 0.00 0.00 0.00 87 1014.6
20260508032004 62 336 1.0 2.0 0.00 0.00 0.00 87 1014.6
20260508031504 62 337 1.0 2.0 0.00 0.00 0.00 87 1014.6
20260508031004 62 343 1.0 2.0 0.00 0.00 0.00 86 1014.6
20260508030504 62 114 0.0 1.0 0.00 0.00 0.00 86 1014.6
20260508030025 62 124 0.0 1.0 0.00 0.00 0.00 85 1014.8
20260508025525 62 137 0.0 1.0 0.00 0.00 0.00 85 1014.9
20260508025025 62 142 0.0 1.0 0.00 0.00 0.00 85 1015.0
20260508024525 62 326 1.0 2.0 0.00 0.00 0.00 85 1015.1
20260508024004 63 335 1.0 2.0 0.00 0.00 0.00 85 1015.0
20260508023504 63 348 1.0 2.0 0.00 0.00 0.00 85 1014.9
20260508023004 63 339 0.0 1.0 0.00 0.00 0.00 85 1014.7
20260508022504 63 316 0.0 2.0 0.00 0.00 0.00 85 1014.7
20260508022003 63 311 0.0 2.0 0.00 0.00 0.00 85 1014.8
20260508021504 63 29 0.0 1.0 0.00 0.00 0.00 84 1014.5
20260508021004 63 343 0.0 1.0 0.00 0.00 0.00 84 1014.6
20260508020525 63 337 1.0 2.0 0.00 0.00 0.00 84 1014.6
20260508020004 64 9 1.0 2.0 0.00 0.00 0.00 84 1014.4
20260508015525 64 24 1.0 2.0 0.00 0.00 0.00 83 1014.4
20260508015004 64 356 1.0 2.0 0.00 0.00 0.00 83 1014.5
20260508014504 64 352 1.0 2.0 0.00 0.00 0.00 83 1014.8
20260508014025 64 354 1.0 3.0 0.00 0.00 0.00 83 1014.6
20260508013504 64 54 1.0 3.0 0.00 0.00 0.00 84 1014.6
20260508013005 64 75 1.0 2.0 0.00 0.00 0.00 83 1014.6
20260508012504 64 334 1.0 2.0 0.00 0.00 0.00 83 1014.7
20260508012004 65 325 1.0 2.0 0.00 0.00 0.00 83 1014.9
20260508011524 65 306 1.0 2.0 0.00 0.00 0.00 83 1015.0
20260508011004 65 296 1.0 3.0 0.00 0.00 0.00 83 1014.7
20260508010504 65 343 2.0 3.0 0.00 0.00 0.00 82 1014.3
20260508010004 65 346 2.0 3.0 0.00 0.00 0.00 83 1014.0
20260508005503 65 330 1.0 2.0 0.00 0.00 0.00 82 1014.1
20260508005003 65 315 1.0 2.0 0.00 0.00 0.00 81 1014.2
20260508004504 66 321 1.0 3.0 0.00 0.00 0.00 81 1014.3
20260508004004 66 123 1.0 3.0 0.00 0.00 0.00 80 1014.0
20260508003504 66 72 1.0 2.0 0.00 0.00 0.00 80 1014.1
20260508003004 66 76 1.0 2.0 0.00 0.00 0.00 81 1014.3
20260508002525 66 359 0.0 2.0 0.00 0.00 0.00 80 1014.6
20260508002004 67 320 1.0 2.0 0.00 0.00 0.00 79 1014.8
20260508001504 67 333 1.0 2.0 0.00 0.00 0.00 78 1014.6
20260508001003 67 333 1.0 2.0 0.00 0.00 0.00 78 1014.3
20260508000504 67 335 1.0 2.0 0.00 0.00 0.00 77 1014.4
20260508000004 67 309 1.0 2.0 0.00 0.00 0.00 77 1014.1
20260507235504 67 327 1.0 3.0 0.00 0.00 0.00 77 1014.2
20260507235004 68 355 1.0 3.0 0.00 0.00 0.00 78 1013.5
20260507234504 68 64 1.0 3.0 0.00 0.00 0.00 75 1013.4
20260507234004 68 118 1.0 3.0 0.00 0.00 0.00 77 1013.2
20260507233504 68 151 1.0 3.0 0.00 0.00 0.00 78 1013.9
20260507233024 68 290 1.0 3.0 0.00 0.00 0.00 78 1014.6
20260507232504 68 336 1.0 3.0 0.00 0.00 0.00 78 1014.5
20260507232004 69 58 1.0 2.0 0.00 0.00 0.00 77 1014.0
20260507231503 69 52 1.0 3.0 0.00 0.00 0.00 77 1014.1
20260507231003 69 357 1.0 3.0 0.00 0.00 0.00 77 1014.6
20260507230503 70 319 1.0 2.0 0.00 0.00 0.00 76 1014.6
20260507230004 70 355 1.0 2.0 0.00 0.00 0.00 76 1014.6
20260507225503 70 82 1.0 2.0 0.00 0.00 0.00 75 1014.2
20260507225003 70 59 1.0 3.0 0.00 0.00 0.00 73 1014.4
20260507224504 70 51 1.0 3.0 0.00 0.00 0.00 71 1014.6
20260507224003 70 44 1.0 3.0 0.00 0.00 0.00 71 1014.6
20260507223503 71 38 1.0 3.0 0.00 0.00 0.00 70 1014.8
20260507223003 71 359 1.0 3.0 0.00 0.00 0.00 70 1015.1
20260507222503 71 11 1.0 3.0 0.00 0.00 0.00 70 1015.1
20260507222025 71 355 1.0 4.0 0.00 0.00 0.00 70 1015.1
20260507221503 71 5 2.0 4.0 0.00 0.00 0.00 68 1015.2
20260507221003 71 24 1.0 4.0 0.00 0.00 0.00 69 1014.9
20260507220503 71 336 1.0 3.0 0.00 0.00 0.00 69 1015.0
20260507220004 72 348 1.0 4.0 0.00 0.00 0.00 69 1015.0
20260507215503 72 24 1.0 4.0 0.00 0.00 0.00 68 1014.5
20260507215025 72 38 1.0 4.0 0.00 0.00 0.00 69 1014.5
20260507214503 72 79 1.0 3.0 0.00 0.00 0.00 70 1014.3
20260507214024 72 62 1.0 3.0 0.00 0.00 0.00 69 1014.3
20260507213503 72 329 1.0 3.0 0.00 0.00 0.00 68 1014.6
20260507213003 72 353 1.0 3.0 0.00 0.00 0.00 70 1014.5
20260507212524 73 45 1.0 4.0 0.00 0.00 0.00 68 1014.0
20260507212003 73 20 1.0 4.0 0.00 0.00 0.00 63 1014.1
20260507211504 73 344 2.0 6.0 0.00 0.00 0.00 68 1014.5
20260507211004 73 3 2.0 6.0 0.00 0.00 0.00 66 1014.2
20260507210504 73 22 2.0 6.0 0.00 0.00 0.00 64 1014.2
20260507210004 75 28 2.0 6.0 0.00 0.00 0.00 60 1014.4
20260507205503 75 31 2.0 5.0 0.00 0.00 0.00 64 1014.8
20260507205003 73 25 2.0 7.0 0.00 0.00 0.00 64 1014.9
20260507204504 72 30 3.0 7.0 0.00 0.00 0.00 66 1015.0
20260507204024 72 25 2.0 7.0 0.00 0.00 0.00 64 1015.0
20260507203504 73 21 2.0 7.0 0.00 0.00 0.00 66 1015.3
20260507203003 73 350 2.0 6.0 0.00 0.00 0.00 62 1015.4
20260507202504 74 338 1.0 4.0 0.00 0.00 0.00 64 1015.6
20260507202004 74 7 1.0 5.0 0.00 0.00 0.00 67 1015.5
20260507201503 72 360 2.0 5.0 0.00 0.00 0.00 66 1015.8
20260507201003 71 346 2.0 5.0 0.00 0.00 0.00 69 1016.1
20260507200503 70 331 2.0 5.0 0.00 0.00 0.00 70 1016.0
20260507200024 71 360 2.0 5.0 0.00 0.00 0.00 68 1015.5
20260507195503 71 36 2.0 5.0 0.00 0.00 0.00 67 1015.6
20260507195003 70 14 1.0 4.0 0.00 0.00 0.00 69 1015.8
20260507194504 70 3 2.0 3.0 0.00 0.00 0.00 71 1016.0
20260507194025 69 360 2.0 4.0 0.00 0.00 0.00 70 1016.0
20260507193503 69 343 2.0 4.0 0.00 0.00 0.00 70 1016.3
20260507193003 69 356 2.0 4.0 0.00 0.00 0.00 71 1016.1
20260507192503 70 28 2.0 5.0 0.00 0.00 0.00 69 1015.4
20260507192003 70 28 2.0 5.0 0.00 0.00 0.00 68 1015.5
20260507191503 70 351 2.0 4.0 0.00 0.00 0.00 70 1015.7
20260507191003 71 355 2.0 6.0 0.00 0.00 0.00 67 1015.9
20260507190504 71 21 2.0 6.0 0.00 0.00 0.00 68 1015.7
20260507190005 71 16 2.0 6.0 0.00 0.00 0.00 67 1015.9
20260507185503 71 2 2.0 6.0 0.00 0.00 0.00 67 1016.2
20260507185003 72 333 1.0 3.0 0.00 0.00 0.00 70 1016.2
20260507184504 72 352 2.0 5.0 0.00 0.00 0.00 68 1016.2
20260507184003 71 27 2.0 5.0 0.00 0.00 0.00 66 1016.2
20260507183524 71 24 2.0 6.0 0.00 0.00 0.00 66 1016.4
20260507183003 71 356 2.0 6.0 0.00 0.00 0.00 69 1016.6
20260507182503 70 349 2.0 6.0 0.00 0.00 0.00 66 1016.5
20260507182024 71 352 2.0 5.0 0.00 0.00 0.00 72 1016.3
20260507181504 71 19 2.0 5.0 0.00 0.00 0.00 68 1016.2
20260507181003 72 23 2.0 5.0 0.00 0.00 0.00 67 1016.4
20260507180503 71 28 2.0 5.0 0.00 0.00 0.00 64 1016.7
20260507180003 71 28 1.0 5.0 0.00 0.00 0.00 66 1016.7
20260507175503 70 354 2.0 4.0 0.00 0.00 0.00 68 1016.5
20260507175003 70 10 2.0 8.0 0.00 0.00 0.00 66 1016.5
20260507174503 71 50 2.0 8.0 0.00 0.00 0.00 68 1016.6
20260507174003 71 35 2.0 5.0 0.00 0.00 0.00 67 1016.5
20260507173503 71 22 2.0 5.0 0.00 0.00 0.00 66 1016.6
20260507173024 71 33 2.0 5.0 0.00 0.00 0.00 69 1016.7
20260507172503 70 343 2.0 5.0 0.00 0.00 0.00 68 1016.7
20260507172003 70 324 2.0 5.0 0.00 0.00 0.00 67 1016.4
20260507171503 70 20 2.0 7.0 0.00 0.00 0.00 67 1016.0
20260507171004 70 38 3.0 7.0 0.00 0.00 0.00 67 1015.9
20260507170503 69 30 2.0 7.0 0.00 0.00 0.00 67 1016.1
20260507170003 69 8 3.0 8.0 0.00 0.00 0.00 70 1016.3
20260507165504 69 349 3.0 8.0 0.00 0.00 0.00 68 1016.2
20260507165003 70 350 3.0 8.0 0.00 0.00 0.00 69 1016.1
20260507164503 70 350 3.0 7.0 0.00 0.00 0.00 67 1016.3
20260507164024 70 2 2.0 8.0 0.00 0.00 0.00 68 1016.1
20260507163524 69 16 3.0 8.0 0.00 0.00 0.00 70 1015.9
20260507163025 69 22 3.0 7.0 0.00 0.00 0.00 70 1016.4
20260507162504 69 35 3.0 7.0 0.00 0.00 0.00 70 1016.3
20260507162004 68 20 2.0 6.0 0.00 0.00 0.00 70 1016.7
20260507161504 68 332 2.0 4.0 0.00 0.00 0.00 72 1017.2
20260507161004 67 332 2.0 4.0 0.00 0.00 0.00 72 1017.2
20260507160504 67 335 2.0 4.0 0.00 0.00 0.00 72 1016.9
20260507160004 66 10 1.0 4.0 0.00 0.00 0.00 72 1016.9
20260507155504 65 360 1.0 5.0 0.00 0.00 0.00 74 1016.9
20260507155004 64 348 2.0 5.0 0.00 0.00 0.00 75 1017.3
20260507154525 64 1 2.0 5.0 0.00 0.00 0.00 77 1017.4
20260507154025 63 356 2.0 5.0 0.00 0.00 0.00 76 1017.1
20260507153504 63 344 2.0 5.0 0.00 0.00 0.00 75 1017.2
20260507153004 63 354 2.0 5.0 0.00 0.00 0.00 76 1017.2
20260507152504 63 14 2.0 6.0 0.00 0.00 0.00 75 1017.1
20260507152004 63 9 3.0 6.0 0.00 0.00 0.00 76 1017.3
20260507151504 62 353 2.0 5.0 0.00 0.00 0.00 76 1017.4
20260507151025 62 343 2.0 5.0 0.00 0.00 0.00 76 1017.6
20260507150504 62 333 2.0 5.0 0.00 0.00 0.00 77 1017.9
20260507150005 62 327 2.0 4.0 0.00 0.00 0.00 78 1017.8
20260507145504 62 345 2.0 5.0 0.00 0.00 0.00 77 1017.6
20260507145004 62 349 2.0 5.0 0.00 0.00 0.00 76 1017.5
20260507144525 62 343 2.0 5.0 0.00 0.00 0.00 77 1017.6
20260507144004 62 343 2.0 5.0 0.00 0.00 0.00 77 1017.5
20260507143504 62 357 2.0 6.0 0.00 0.00 0.00 77 1017.4
20260507143004 62 7 2.0 6.0 0.00 0.00 0.00 78 1017.3
20260507142504 61 337 2.0 4.0 0.00 0.00 0.00 79 1017.5
20260507142004 60 335 1.0 3.0 0.00 0.00 0.00 80 1017.7
20260507141504 60 5 2.0 4.0 0.00 0.00 0.00 81 1017.7
20260507141004 60 24 2.0 4.0 0.00 0.00 0.00 80 1017.6
20260507140504 59 9 2.0 4.0 0.00 0.00 0.00 81 1017.7
20260507140004 59 342 2.0 6.0 0.00 0.00 0.00 80 1017.6
20260507135504 59 350 2.0 6.0 0.00 0.00 0.00 81 1017.5
20260507135004 59 359 2.0 6.0 0.00 0.00 0.00 83 1017.4
20260507134504 58 353 1.0 3.0 0.00 0.00 0.00 84 1017.5
20260507134004 58 349 2.0 4.0 0.00 0.00 0.00 84 1017.5
20260507133504 58 348 2.0 4.0 0.00 0.00 0.00 84 1017.7
20260507133004 58 342 1.0 4.0 0.00 0.00 0.00 85 1017.8
20260507132525 58 340 1.0 4.0 0.00 0.00 0.00 85 1017.8
20260507132004 58 339 1.0 5.0 0.00 0.00 0.00 85 1017.4
20260507131504 57 323 1.0 5.0 0.00 0.00 0.00 85 1017.1
20260507131025 58 332 2.0 4.0 0.00 0.00 0.00 86 1016.8
20260507130504 57 352 2.0 4.0 0.00 0.00 0.00 86 1016.7
20260507130004 57 351 1.0 4.0 0.00 0.00 0.00 86 1016.3
20260507125504 57 359 1.0 4.0 0.00 0.00 0.00 86 1016.5
20260507125004 57 353 1.0 4.0 0.00 0.00 0.00 86 1016.7
20260507124504 57 348 1.0 4.0 0.00 0.00 0.00 86 1016.8
20260507124004 57 351 1.0 4.0 0.00 0.00 0.00 86 1016.8
20260507123504 57 346 2.0 5.0 0.00 0.00 0.00 87 1016.6
20260507123004 57 345 2.0 5.0 0.00 0.00 0.00 87 1016.5
20260507122504 57 343 2.0 4.0 0.00 0.00 0.00 88 1016.6
20260507122025 57 342 1.0 4.0 0.00 0.00 0.00 88 1016.5
20260507121525 57 344 1.0 3.0 0.00 0.00 0.00 88 1016.6
20260507121004 56 353 1.0 2.0 0.00 0.00 0.00 89 1016.4
20260507120504 56 344 1.0 3.0 0.00 0.00 0.00 88 1016.4
20260507120005 56 339 1.0 4.0 0.00 0.00 0.00 88 1016.4
20260507115504 56 343 1.0 4.0 0.00 0.00 0.00 88 1016.3
20260507115004 56 346 1.0 4.0 0.00 0.00 0.00 89 1016.2
20260507114504 56 336 2.0 4.0 0.00 0.00 0.00 89 1016.4
20260507114004 56 327 1.0 4.0 0.00 0.00 0.00 89 1016.3
20260507113525 56 336 0.0 3.0 0.00 0.00 0.00 89 1016.0
20260507113004 56 341 1.0 3.0 0.00 0.00 0.00 89 1015.7
20260507112504 56 340 1.0 3.0 0.00 0.00 0.00 89 1015.7
20260507112004 56 339 1.0 4.0 0.00 0.00 0.00 88 1015.8
20260507111506 56 332 1.0 4.0 0.00 0.00 0.00 89 1015.8
20260507111025 56 333 1.0 3.0 0.00 0.00 0.00 89 1015.7
20260507110504 56 346 1.0 3.0 0.00 0.00 0.00 89 1015.6
20260507110004 56 11 1.0 3.0 0.00 0.00 0.00 89 1015.5
20260507105504 56 356 1.0 4.0 0.00 0.00 0.00 89 1015.6
20260507105025 56 333 1.0 4.0 0.00 0.00 0.00 89 1015.5
20260507104504 56 344 1.0 4.0 0.00 0.00 0.00 89 1015.5
20260507104004 56 7 1.0 4.0 0.00 0.00 0.00 89 1015.2
20260507103525 56 359 1.0 4.0 0.00 0.00 0.00 88 1014.9
20260507103004 56 345 1.0 5.0 0.00 0.00 0.00 89 1014.9
20260507102505 56 350 1.0 5.0 0.00 0.00 0.00 89 1014.7
20260507102006 56 352 2.0 3.0 0.00 0.00 0.00 89 1014.6
20260507101525 56 346 1.0 6.0 0.00 0.00 0.00 89 1014.6
20260507101004 56 339 1.0 6.0 0.00 0.00 0.00 89 1014.6
20260507100504 56 11 1.0 3.0 0.00 0.00 0.00 89 1014.4
20260507100004 56 19 1.0 3.0 0.00 0.00 0.00 89 1014.2
20260507095504 56 6 1.0 3.0 0.00 0.00 0.00 89 1014.2
20260507095004 56 356 1.0 4.0 0.00 0.00 0.00 89 1014.2
20260507094525 56 351 1.0 4.0 0.00 0.00 0.00 89 1014.4
20260507094004 56 344 1.0 3.0 0.00 0.00 0.00 89 1014.2
20260507093504 56 12 1.0 4.0 0.00 0.00 0.00 89 1014.3
20260507093004 56 31 1.0 4.0 0.00 0.00 0.00 89 1014.2
20260507092504 56 18 1.0 3.0 0.00 0.00 0.00 89 1014.0
20260507092004 56 29 1.0 3.0 0.00 0.00 0.00 89 1014.1
20260507091504 56 341 1.0 3.0 0.00 0.00 0.00 89 1014.3
20260507091004 56 328 1.0 3.0 0.00 0.00 0.00 89 1014.4
20260507090504 56 353 1.0 3.0 0.00 0.00 0.00 89 1014.3
20260507090025 56 346 1.0 4.0 0.00 0.00 0.00 90 1014.0
20260507085504 56 347 1.0 4.0 0.00 0.00 0.00 89 1014.4
20260507085004 56 347 1.0 4.0 0.00 0.00 0.00 89 1014.5
20260507084504 56 348 2.0 4.0 0.00 0.00 0.00 89 1014.9
20260507084004 57 354 1.0 4.0 0.00 0.00 0.00 89 1014.6
20260507083504 57 344 1.0 5.0 0.00 0.00 0.00 89 1014.8
20260507083025 57 337 1.0 5.0 0.00 0.00 0.00 89 1014.7
20260507082504 57 343 2.0 5.0 0.00 0.00 0.00 89 1014.8
20260507082004 57 351 2.0 5.0 0.00 0.00 0.00 89 1014.6
20260507081525 57 346 2.0 4.0 0.00 0.00 0.00 89 1014.4
20260507081004 57 344 2.0 5.0 0.00 0.00 0.00 89 1014.6
20260507080525 57 348 2.0 5.0 0.00 0.00 0.00 89 1014.7
20260507080004 57 345 2.0 4.0 0.00 0.00 0.00 89 1014.5
20260507075504 57 345 2.0 4.0 0.00 0.00 0.00 89 1014.7
20260507075004 57 349 2.0 6.0 0.00 0.00 0.00 89 1014.7
20260507074504 57 346 2.0 6.0 0.00 0.00 0.00 89 1014.9
20260507074025 58 346 2.0 5.0 0.00 0.00 0.00 89 1015.2
20260507073525 58 343 2.0 5.0 0.00 0.00 0.00 89 1015.2
20260507073004 58 347 2.0 5.0 0.00 0.00 0.00 89 1015.0
20260507072504 58 346 2.0 5.0 0.00 0.00 0.00 89 1014.9
20260507072004 58 348 2.0 6.0 0.00 0.00 0.00 89 1014.9
20260507071504 58 348 3.0 7.0 0.00 0.00 0.00 89 1014.9
20260507071004 59 345 2.0 9.0 0.00 0.00 0.00 90 1014.7
20260507070504 59 10 2.0 9.0 0.00 0.00 0.00 90 1014.7
20260507070008 59 3 2.0 6.0 0.00 0.00 0.00 90 1014.6
20260507065504 59 340 2.0 6.0 0.00 0.00 0.00 90 1014.9
20260507065004 59 341 2.0 4.0 0.00 0.00 0.00 90 1014.8
20260507064504 59 339 2.0 4.0 0.00 0.00 0.00 89 1014.7
20260507064004 59 353 2.0 6.0 0.00 0.00 0.00 89 1014.9
20260507063504 59 8 2.0 6.0 0.00 0.00 0.00 89 1014.7
20260507063004 59 347 2.0 6.0 0.00 0.00 0.00 89 1014.6
20260507062504 59 339 2.0 6.0 0.00 0.00 0.00 89 1014.7
20260507062004 59 344 3.0 6.0 0.00 0.00 0.00 89 1014.4
20260507061504 59 350 3.0 6.0 0.00 0.00 0.00 89 1014.5
20260507061004 59 349 2.0 6.0 0.00 0.00 0.00 89 1014.5
20260507060525 60 342 2.0 5.0 0.00 0.00 0.00 89 1014.5
20260507060004 60 342 2.0 6.0 0.00 0.00 0.00 89 1014.3
20260507055504 60 342 2.0 6.0 0.00 0.00 0.00 89 1014.7
20260507055004 60 342 2.0 5.0 0.00 0.00 0.00 88 1014.7
20260507054504 60 339 2.0 6.0 0.00 0.00 0.00 88 1014.7
20260507054004 61 349 2.0 6.0 0.00 0.00 0.00 89 1014.6
20260507053504 61 354 2.0 4.0 0.00 0.00 0.00 89 1014.6
20260507053004 61 345 1.0 3.0 0.00 0.00 0.00 88 1014.7
20260507052504 61 340 1.0 3.0 0.00 0.00 0.00 88 1014.4
20260507052004 61 353 2.0 5.0 0.00 0.00 0.00 88 1014.5
20260507051525 61 358 2.0 5.0 0.00 0.00 0.00 88 1014.4
20260507051004 61 354 2.0 5.0 0.00 0.00 0.00 88 1014.4
20260507050504 61 350 2.0 5.0 0.00 0.00 0.00 88 1014.4